{"data":{"norad_id":67913,"intl_designator":"2026-036K","name":"STARLINK-36690","alt_names":[],"object_type":"PAYLOAD","status":"ACTIVE","operator":null,"country":"US","launch_date":"2026-02-22","launch_site_code":"AFETR","launch_vehicle":null,"mission":null,"orbit_class":"UNKNOWN","rcs_meters":null,"size_class":null,"mass_kg":null,"dimensions":null,"purposes":["comms"],"wikipedia_slug":null,"has_3d_model":false,"image_url":null,"decayed_at":null,"tle_current":{"epoch":"2026-09-19T15:08:02.556096Z","epoch_age_seconds":138372,"freshness":"FRESH","line1":"1 67913U 26036K   26262.63058514  .00006902  00000+0  26010-3 0  9991","line2":"2 67913  43.0010 229.9183 0000341 310.9857  49.0965 15.27580015 33385","mean_motion":15.27580015,"eccentricity":3.41e-5,"inclination_deg":43.001,"raan_deg":229.9183,"arg_perigee_deg":310.9857,"mean_anomaly_deg":49.0965,"bstar":0.0002601,"rev_number":3338,"period_min":94.266747788004,"perigee_km":482.81508467991,"apogee_km":483.2830175686,"semimajor_km":6861.1860511243,"source":"CELESTRAK","updated_at":"2026-09-20T09:00:43.702770Z"}}}